Location: Bismarck
(46.7731°N, 100.8200°W)
Time: 17:25:50
(UTC-05:00)

Daily predictions for brighter satellites

Satellite Brightness Start Highest point End
(mag) Time Altitude Azimuth Time Altitude Azimuth Time Altitude Azimuth
COSMOS 2455 4.1 22:09:42 10° NNW 22:15:06 32° NE 22:20:28 10° ESE
Cosmos 1437 3.4 22:15:35 10° SSW 22:18:49 60° WNW 22:22:05 10° N
Terra 3.6 22:15:45 10° ESE 22:19:00 19° ENE 22:22:16 10° NNE
Cosmos 1898 Rocket 3.7 22:15:37 10° S 22:20:36 51° ESE 22:25:39 10° NNE
H-2A R/B 3.6 22:16:31 10° ESE 22:20:49 25° ENE 22:25:11 10° N
Cosmos 1980 4.2 22:15:25 10° NNW 22:20:57 51° ENE 22:26:25 10° SE
Tiangong 1 1.9 22:18:42 10° SW 22:21:29 30° SSE 22:24:16 10° ESE
Cosmos 1939 Rocket 3.5 22:21:04 10° S 22:24:53 52° W 22:28:42 10° NNW
NOSS 3-1 (A) 3.5 22:20:37 10° SSW 22:26:26 60° ESE 22:32:55 10° NE
Aureole 3 4.3 22:23:44 10° SSW 22:29:51 80° W 22:34:37 10° N
MetOp-B 4.2 22:24:40 10° SSE 22:30:01 81° ENE 22:35:25 10° NNW
Nimbus 7 Rocket 4.4 22:25:50 10° NNE 22:31:44 86° ESE 22:37:37 10° SSW
Cosmos 2219 3.5 22:26:51 10° SSW 22:32:36 76° WNW 22:38:23 10° NNE
CZ-4 SHROUD 3.3 22:29:30 10° S 22:32:38 76° WSW 22:35:47 10° NNW
Cosmos 2237 Rocket 2.5 22:27:03 10° NNW 22:32:42 57° ENE 22:38:16 10° SE
SPOT 1/Viking Rocket 3.7 22:28:07 10° SSE 22:33:12 62° ENE 22:38:19 10° N
deb Chang Zheng 4 4.2 22:30:19 10° N 22:34:37 62° WNW 22:38:54 10° SSW
Cosmos 1271 Rocket 2.8 22:32:53 10° N 22:36:44 65° ENE 22:40:36 10° SSE
Cosmos 2150 Rocket 4.1 22:31:32 10° SSW 22:36:57 72° ESE 22:42:25 10° NNE
Sich 1 3.1 22:33:43 10° S 22:38:05 67° E 22:42:27 10° NNE
Cosmos 1626 3.6 22:36:48 11° SE 22:39:37 22° E 22:42:35 10° NE
Cosmos 2360 Rocket 4.2 22:36:39 10° NW 22:41:03 24° WSW 22:45:27 10° SSW
Cosmos 1862 Rocket 4.4 22:37:26 10° N 22:41:27 35° ENE 22:45:04 12° SE
Cosmos 2082 4.3 22:36:59 10° S 22:42:11 37° ESE 22:47:24 10° NE
YAOGAN 6 2.6 22:39:49 10° SSE 22:43:26 90° WSW 22:47:03 10° NNW
ERBS 2.8 22:40:13 10° SSW 22:43:29 38° SE 22:46:45 10° ENE
Iridium 2 4.3 22:40:41 10° SSE 22:44:16 39° E 22:47:53 10° NNE
Cosmos 1633 Rocket 3.0 22:41:38 10° S 22:45:59 76° E 22:50:21 10° NNE
ATLAS 2AS CENTAUR R/B 3.4 22:41:55 10° S 22:48:50 41° ESE 22:56:13 10° NE
Cosmos 2242 Rocket 3.6 22:45:21 10° N 22:49:52 89° W 22:54:23 10° S
NOAA 11 4.3 22:45:13 10° SSE 22:50:37 72° ENE 22:56:06 10° N
CZ-4 R/B 4.2 22:48:10 10° NNE 22:52:58 49° E 22:57:38 10° S
ATLAS 3B R/B 3.1 22:47:25 10° NW 22:54:29 60° NE 23:00:41 12° SE
Cosmos 1703 3.3 22:50:45 10° S 22:54:36 64° E 22:58:30 10° NNE
CZ-4C R/B 3.6 22:52:05 14° SE 22:54:46 42° ENE 22:58:06 10° N
Envisat 4.2 22:50:58 10° SSW 22:55:42 39° W 23:00:28 10° NNW
SL-14 R/B 3.7 22:52:16 10° SSW 22:56:13 68° W 23:00:16 10° N
USA 245 2.3 22:58:26 14° S 23:00:15 59° WSW 23:02:28 10° NNW
Cosmos 192 4.4 22:57:49 10° NNW 23:02:45 69° ENE 23:06:44 16° SSE
Cosmos 1300 4.4 23:02:32 10° NNW 23:05:55 30° W 23:09:17 10° SSW
Cosmos 220 Rocket 4.1 23:02:54 10° SSW 23:07:18 87° WNW 23:11:48 10° NNE
USA 32 4.2 23:02:24 10° N 23:07:41 78° W 23:12:55 10° S
NOSS 3-1 (C) 4.1 23:05:29 10° SW 23:11:25 63° NW 23:18:08 10° NE
CZ-4C R/B 4.1 23:05:33 10° NNW 23:11:28 32° NNE 23:17:59 10° E
FALCON 9 R/B 4.5 22:44:32 10° WSW 23:13:37 49° SSW 23:20:47 13° ESE
Cosmos 2227 Rocket 2.2 23:08:15 10° SSW 23:13:51 67° ESE 23:19:29 10° NNE
Cosmos 1937 Rocket 3.6 23:09:18 10° SSW 23:14:31 79° WNW 23:19:44 10° NNE
Cosmos 990 Rocket 3.9 23:15:07 10° SSW 23:20:16 85° ESE 23:25:27 10° NNE
DELTA 2 DEB (DPAF) 4.2 23:18:47 17° SSE 23:22:17 86° WSW 23:26:49 10° NNW
Okean 1-7 4.4 23:19:48 10° NNE 23:23:22 25° ENE 23:25:40 16° ESE
CZ-4B R/B 4.0 23:21:50 10° N 23:27:04 64° WNW 23:32:10 10° SSW
OTV 4 2.8 23:25:56 10° SSW 23:26:19 12° SSW 23:26:19 12° SSW
Cosmos 1455 2.3 23:24:21 10° NNW 23:28:10 71° W 23:30:52 19° S
SL-16 R/B 2.3 23:22:49 10° NNW 23:28:31 70° ENE 23:32:32 20° SE
Cosmos 1726 4.5 23:26:40 10° NW 23:29:32 21° W 23:32:24 10° SW
ARGOS 3.8 23:26:16 11° S 23:31:15 52° W 23:36:32 10° NNW
Cosmos 1346 3.5 23:29:55 14° SSW 23:32:21 62° WNW 23:35:23 10° N
Cosmos 2333 Rocket 3.0 23:27:43 10° NW 23:33:13 47° WSW 23:37:44 15° S
Cosmos 2219 Rocket 3.5 23:35:19 10° NW 23:40:12 31° WSW 23:44:50 11° SSW
Cosmos 2297 Rocket 2.1 23:34:39 10° SSW 23:40:17 76° ESE 23:45:58 10° NNE
Landsat 7 4.1 23:36:52 17° S 23:40:25 63° WSW 23:45:10 10° NNW
Cosmos 1470 Rocket 4.1 23:36:30 10° SSW 23:40:44 58° WNW 23:45:01 10° N
Cosmos 1933 Rocket 4.1 23:37:15 10° SSW 23:41:39 60° W 23:46:05 10° N
Lacrosse 4 Rocket 1.5 23:38:18 10° NNW 23:42:46 83° WSW 23:45:16 26° SSE
Cosmos 1703 Rocket 3.7 23:38:47 10° N 23:43:07 62° ENE 23:45:29 26° SSE
SeaSat 1 4.0 23:40:22 11° ESE 23:44:18 28° NE 23:48:28 10° N
Cosmos 44 Rocket 4.0 23:43:23 22° SSE 23:46:04 37° ESE 23:50:51 10° NE
Cosmos 1933 3.3 23:43:26 10° N 23:47:31 75° E 23:49:35 28° SSE
Cosmos 1269 Rocket 4.1 23:44:21 10° NNW 23:49:41 76° WSW 23:52:58 24° S
NOSS 2-3 (C) 4.4 23:47:39 21° S 23:50:32 42° ESE 23:55:52 10° NE
